Voltar ao catálogo

DMC 3-FM2

AtivoCiênciaSSO
NORAD 40716·PAYLOAD·🇬🇧 United Kingdom

Lançado Jul 10, 2015 de Satish Dhawan Space Centre

Loading…

Próximas Passagens (próximas 24 horas)

TLE

AtualizadoSource: Space-Track

Época: Sep 14, 2026, 22:22 UTC

1 40716U 15032B   26257.93207395  .00000807  00000-0  98562-4 0  9998
2 40716  97.6367 121.1662 0007327 114.8984 245.2994 14.85828851603230

Acompanhe DMC 3-FM2 em tempo real com AllMySat

Download on the App Store